User: anonymous   Login
Location: Unspecified
(0.0000°N, 0.0000°E)
Time: 00:21:25
(UTC+00:00)
Language:

ORS 1 (USA 231) - Orbit

View from above orbital plane
View from above orbital plane
View from above satellite
View from above satellite

Ground track
Ground track

The orbit data is extracted from the following two-line orbital elements,

1 37728U 11029A   17068.74969004 0.00028500  00000-0  30569-3 0    05
2 37728  40.0019 356.1687 0004000  22.9246 337.0747 15.62821323    02
Epoch (UTC): 09 March 2017 17:59:33
Eccentricity: 0.0004000
inclination: 40.0019°
perigee height: 377 km
apogee height: 382 km
right ascension of ascending node: 356.1687°
argument of perigee: 22.9246°
revolutions per day: 15.62821323
mean anomaly at epoch: 337.0747°
orbit number at epoch: 0

The dashed part of the orbit path shows where the satellite is in the earth's shadow,  

DLR